Salina, KS

10:06 PM CDT on March 24, 2017 (GMT -0500)
Salina Municipal

Weather History for KSLN - January, 2015

Change the Weather History Date:

Sunday, January 11, 2015

  Actual Average Record
Temperature  
Mean Temperature 31 °F 31 °F  
Max Temperature 38 °F 41 °F 72 °F (1911)
Min Temperature 24 °F 20 °F -22 °F (1918)
Degree Days  
Heating Degree Days 34 34  
Month to date heating degree days 494 374  
Since 1 July heating degree days 2384 2338  
Moisture  
Dew Point 25 °F    
Average Humidity 71    
Maximum Humidity 92    
Minimum Humidity 50    
Precipitation  
Precipitation 0.02 in 0.02 in 0.10 in (1968)
Month to date precipitation 0.02 0.17  
Year to date precipitation 0.02 0.17  
Sea Level Pressure  
Sea Level Pressure 30.17 in    
Wind  
Wind Speed 10 mph (SSE)    
Max Wind Speed 23 mph    
Max Gust Speed 27 mph    
Visibility 8 miles    
Events Rain    
T = Trace of Precipitation, MM = Missing Value Source: NWS Daily Summary

Daily Weather History Graph

Daily Weather History Graph

Search for Another Location

Airport or City:

Trip Planner

Search our weather history database for the weather conditions in past years. The results will help you decide how hot, cold, wet, or windy it might be!

Date:

Astronomy

Jan. 11, 2015 Rise Set
Actual Time 7:48 AM CST 5:28 PM CST
Civil Twilight 7:19 AM CST 5:58 PM CST
Nautical Twilight 6:46 AM CST 6:31 PM CST
Astronomical Twilight 6:14 AM CST 7:03 PM CST
Moon 11:49 PM CST (1/11) 11:07 AM CST (1/11)
Length of Visible Light 10h 38m
Length of Day
9h 40m
Waning Gibbous, 66% of the Moon is Illuminated
Jan 11
Waning Gibbous
Jan 13
Last Quarter
Jan 20
New
Jan 26
First Quarter
Feb 3
Full

Hourly Weather History & Observations

Time (CST) Temp. Windchill Dew Point Humidity Pressure Visibility Wind Dir Wind Speed Gust Speed Precip Events Conditions
12:53 AM 27.0 °F 16.7 °F 12.9 °F 56% 30.14 in 10.0 mi South 11.5 mph - N/A   Clear
1:53 AM 27.0 °F 14.7 °F 14.0 °F 58% 30.13 in 10.0 mi South 16.1 mph - N/A   Clear
2:53 AM 25.0 °F 16.3 °F 15.1 °F 66% 30.14 in 10.0 mi South 8.1 mph - N/A   Clear
3:53 AM 25.0 °F 15.5 °F 15.1 °F 66% 30.12 in 10.0 mi South 9.2 mph - N/A   Clear
4:53 AM 24.1 °F 16.0 °F 15.1 °F 69% 30.11 in 10.0 mi South 6.9 mph - N/A   Clear
5:53 AM 25.0 °F 15.5 °F 16.0 °F 69% 30.10 in 10.0 mi South 9.2 mph - N/A   Clear
6:53 AM 28.0 °F 17.0 °F 18.0 °F 66% 30.10 in 10.0 mi South 13.8 mph - N/A   Clear
7:53 AM 27.0 °F 18.7 °F 19.0 °F 72% 30.12 in 10.0 mi South 8.1 mph - N/A   Clear
8:53 AM 28.9 °F 21.9 °F 19.9 °F 69% 30.12 in 10.0 mi South 6.9 mph - N/A   Clear
9:53 AM 32.0 °F 22.1 °F 24.1 °F 73% 30.14 in 10.0 mi South 13.8 mph 21.9 mph N/A   Clear
10:53 AM 35.1 °F 27.4 °F 26.1 °F 70% 30.13 in 10.0 mi South 10.4 mph - N/A   Clear
11:53 AM 36.0 °F 26.7 °F 27.0 °F 70% 30.11 in 10.0 mi SSW 15.0 mph - N/A   Clear
12:53 PM 37.0 °F 29.3 °F 28.0 °F 70% 30.09 in 10.0 mi South 11.5 mph 18.4 mph N/A   Clear
1:17 PM 37.0 °F 29.3 °F 28.9 °F 73% 30.06 in 9.0 mi South 11.5 mph - N/A   Mostly Cloudy
1:53 PM 37.0 °F 29.3 °F 28.9 °F 73% 30.09 in 8.0 mi South 11.5 mph - N/A   Overcast
2:53 PM 37.0 °F 29.3 °F 30.0 °F 76% 30.10 in 8.0 mi South 11.5 mph - N/A   Overcast
3:53 PM 37.0 °F 29.3 °F 30.0 °F 76% 30.12 in 7.0 mi South 11.5 mph - N/A   Overcast
4:53 PM 36.0 °F 30.3 °F 30.0 °F 79% 30.14 in 7.0 mi South 6.9 mph - N/A   Overcast
5:53 PM 35.1 °F 31.0 °F 30.0 °F 82% 30.17 in 8.0 mi SSE 4.6 mph - N/A   Overcast
6:16 PM 35.1 °F 31.0 °F 30.0 °F 82% 30.14 in 7.0 mi ESE 4.6 mph - 0.00 in Rain Light Rain
6:53 PM 35.1 °F 32.2 °F 30.0 °F 82% 30.19 in 6.0 mi SE 3.5 mph - 0.00 in Rain Light Rain
7:42 PM 34.0 °F 31.0 °F 30.9 °F 89% 30.18 in 5.0 mi North 3.5 mph - 0.02 in   Mostly Cloudy
7:53 PM 34.0 °F 31.0 °F 30.9 °F 89% 30.23 in 5.0 mi NNE 3.5 mph - 0.02 in   Mostly Cloudy
8:15 PM 34.0 °F - 30.9 °F 89% 30.19 in 5.0 mi Calm Calm - N/A   Scattered Clouds
8:53 PM 32.0 °F 28.7 °F 28.9 °F 88% 30.25 in 3.0 mi North 3.5 mph - N/A   Clear
9:53 PM 28.9 °F 25.2 °F 27.0 °F 92% 30.27 in 3.0 mi NNW 3.5 mph - N/A   Clear
10:27 PM 30.9 °F 19.8 °F 28.0 °F 89% 30.26 in 4.0 mi North 16.1 mph - N/A   Mostly Cloudy
10:36 PM 30.9 °F 19.8 °F 28.0 °F 89% 30.27 in 6.0 mi North 16.1 mph - N/A   Overcast
10:53 PM 30.9 °F 19.8 °F 25.0 °F 79% 30.31 in 10.0 mi North 16.1 mph - N/A   Overcast
11:16 PM 30.0 °F 20.0 °F 21.9 °F 72% 30.29 in 10.0 mi NNE 12.7 mph - N/A   Overcast
11:53 PM 28.0 °F 14.6 °F 21.0 °F 75% 30.35 in 10.0 mi North 20.7 mph - N/A   Overcast